TimeEST,TemperatureF,Dew PointF,Humidity,Sea Level PressureIn,VisibilityMPH,Wind Direction,Wind SpeedMPH,Gust SpeedMPH,PrecipitationIn,Events,Conditions,WindDirDegrees,DateUTC
12:56 AM,28.0,14.0,56,30.47,10.0,Calm,Calm,-,N/A,,Overcast,0,2013-11-29 05:56:00
1:56 AM,28.0,15.1,58,30.48,10.0,Calm,Calm,-,N/A,,Overcast,0,2013-11-29 06:56:00
2:56 AM,28.9,12.9,51,30.48,10.0,Calm,Calm,-,N/A,,Overcast,0,2013-11-29 07:56:00
3:56 AM,28.9,14.0,54,30.48,10.0,Calm,Calm,-,N/A,,Overcast,0,2013-11-29 08:56:00
4:56 AM,28.9,14.0,54,30.49,10.0,Calm,Calm,-,N/A,,Overcast,0,2013-11-29 09:56:00
5:56 AM,28.0,15.1,58,30.51,10.0,West,4.6,-,N/A,,Mostly Cloudy,270,2013-11-29 10:56:00
6:56 AM,28.0,16.0,61,30.53,10.0,West,3.5,-,N/A,,Mostly Cloudy,270,2013-11-29 11:56:00
7:56 AM,28.0,17.1,63,30.56,10.0,West,5.8,-,N/A,,Mostly Cloudy,260,2013-11-29 12:56:00
8:56 AM,32.0,19.0,59,30.58,10.0,WNW,6.9,-,N/A,,Clear,300,2013-11-29 13:56:00
9:56 AM,33.1,18.0,54,30.58,10.0,NW,8.1,-,N/A,,Clear,310,2013-11-29 14:56:00
10:56 AM,34.0,17.1,50,30.58,10.0,WNW,6.9,-,N/A,,Partly Cloudy,300,2013-11-29 15:56:00
11:56 AM,37.0,17.1,44,30.57,10.0,WNW,8.1,-,N/A,,Scattered Clouds,300,2013-11-29 16:56:00
12:56 PM,35.1,17.1,48,30.58,10.0,WNW,12.7,16.1,N/A,,Mostly Cloudy,290,2013-11-29 17:56:00
1:56 PM,35.1,17.1,48,30.58,10.0,NW,9.2,-,N/A,,Overcast,310,2013-11-29 18:56:00
2:56 PM,34.0,17.1,50,30.60,10.0,North,9.2,-,N/A,,Mostly Cloudy,350,2013-11-29 19:56:00
3:56 PM,33.1,16.0,50,30.62,10.0,NNW,9.2,-,N/A,,Mostly Cloudy,340,2013-11-29 20:56:00
4:56 PM,33.1,16.0,50,30.64,10.0,NNW,6.9,-,N/A,,Mostly Cloudy,330,2013-11-29 21:56:00
5:56 PM,30.9,16.0,54,30.65,10.0,North,11.5,-,N/A,,Scattered Clouds,350,2013-11-29 22:56:00
6:56 PM,28.9,16.0,58,30.68,10.0,North,5.8,-,N/A,,Partly Cloudy,350,2013-11-29 23:56:00
7:56 PM,28.9,15.1,56,30.70,10.0,NW,8.1,-,N/A,,Clear,320,2013-11-30 00:56:00
8:56 PM,28.0,14.0,56,30.71,10.0,North,6.9,-,N/A,,Clear,350,2013-11-30 01:56:00
9:56 PM,26.1,14.0,60,30.71,10.0,NNW,5.8,-,N/A,,Clear,340,2013-11-30 02:56:00
10:56 PM,26.1,12.0,55,30.73,10.0,NNW,8.1,-,N/A,,Clear,340,2013-11-30 03:56:00
11:56 PM,25.0,10.9,55,30.74,10.0,North,4.6,-,N/A,,Clear,360,2013-11-30 04:56:00